Regional Weather Roundup
Issued by NWS

Home | Current Version | Previous Version | Graphics & Text | Print | Product List | Glossary On
Versions: 1 2 3 4 5 6 7 8 9 10 11 12 13 14 15 16 17 18 19 20 21 22 23 24 25 26 27 28 29 30 31 32 33 34 35 36 37 38 39 40 41 42 43 44 45 46 47 48 49 50
000
ASUS43 KIND 271109
RWRIN

WEATHER ROUNDUP FOR INDIANA
NATIONAL WEATHER SERVICE INDIANAPOLIS IN
700 AM EDT WED MAY 27 2015

NOTE: "FAIR" INDICATES FEW OR NO CLOUDS BELOW 12,000 FEET WITH NO
SIGNIFICANT WEATHER AND/OR OBSTRUCTIONS TO VISIBILITY.

* - STATION DOES NOT REPORT WEATHER SUCH AS PRECIPITATION OR FOG.

+ - STATION NOT QUALITY CONTROLLED BY THE NATIONAL WEATHER SERVICE.
    USE DATA WITH CAUTION...ESPECIALLY DEWPOINT AND RELATIVE
    HUMIDITY OBSERVATIONS.

INZ001>003-010>013-019-020-271200-
NORTHWEST INDIANA

CITY           SKY/WX    TMP DP  RH WIND       PRES   REMARKS
GARY /AIRPORT/ PTCLDY    68  63  83 S7        29.93R
KNOX *+        PTCLDY    64  59  82 SW13      29.96R
LA PORTE +     CLEAR     67  62  84 SW13G21   29.96R
MICHIGAN CITY+ PTCLDY    64  59  82 SW13      29.94S
MONTICELLO +   PTCLDY    64  62  92 SW9G17    29.99R
RENSSELAER +   PTCLDY    64  63  94 SW13      29.97R
VALPARAISO     PTCLDY    65  60  84 SW12      29.96R

$$

LMZ046-743>745-271200-
SOUTHERN LAKE MICHIGAN

STATION/POSITION TIME  TEMP    WIND        PRES    WAVE
                       AIR SEA DIR/SP/G            HT
                 (UTC) (F)     (DEG/KT/KT) (MB)    (FT)
BURNS HARBOR     1100   66     200/ 12/ 18 1013.9S
MICHIGAN CITY    1100   66     180/ 16/ 19   N/A
5NW MICH CITY    1100   61 52  220/ 12/ 16   N/A     2

$$

INZ004-005-014>016-021>024-271200-
NORTH CENTRAL INDIANA

CITY           SKY/WX    TMP DP  RH WIND       PRES   REMARKS
ELKHART        CLEAR     66  59  77 SW10      29.96
GOSHEN         CLEAR     65  60  84 SW15      29.96R
LOGANSPORT +   PTCLDY    64  59  82 SW10      30.01R
PERU/GRISSOM   CLEAR     66  61  84 SW15      30.00R
ROCHESTER +    CLEAR     68  63  83 SW9       30.00R
SOUTH BEND     CLEAR     65  60  84 SW13      29.95R
WARSAW +       CLEAR     64  61  88 SW6       29.97S

$$

INZ006>009-017-018-025>027-271200-
NORTHEAST INDIANA

CITY           SKY/WX    TMP DP  RH WIND       PRES   REMARKS
ANGOLA *+      CLEAR     64  55  72 SW9       29.97R
AUBURN +       CLEAR     64  59  82 SW6       30.00R
FORT WAYNE     PTCLDY    63  60  90 SW12      30.01R
HUNTINGTON +   CLEAR     64  60  87 SW6       30.00S

$$

INZ028-029-035-036-043>045-051>053-271200-
WEST CENTRAL INDIANA

CITY           SKY/WX    TMP DP  RH WIND       PRES   REMARKS
CRAWFORDSVL +  MOCLDY    63  58  83 SW12      30.03S
GREENCASTLE +  MOCLDY    63  59  88 S6        30.06R
LAFAYETTE      PTCLDY    65  61  87 SW7       30.00R
TERRE HAUTE    MOCLDY    65  62  90 SW9       30.05R

$$

INZ030>032-037>040-046>048-054>057-064-065-271200-
CENTRAL INDIANA

CITY           SKY/WX    TMP DP  RH WIND       PRES   REMARKS
CP ATTERBURY + CLEAR     61  59  94 CALM      30.08S FOG
FISHERS *+     CLEAR     63  63 100 SW8       30.06
FRANKFORT +    CLEAR     65  64  94 S14       30.04R
GREENWOOD *+   CLEAR     63  59  88 S5        30.07R
INDIANAPOLIS   CLOUDY    63  60  90 SW9       30.04R
-EAGLE CREEK   CLEAR     63  61  93 SW7       30.05R
KOKOMO *+      CLEAR     66  61  82 SW15      30.02R
MARION +       CLEAR     63  59  87 SW10      30.04R
MT COMFORT *+  CLEAR     61 N/A N/A S7        30.07R
SHELBYVILLE    CLEAR     64  61  90 S9        30.07R
ZIONSVILLE +   CLEAR     64  59  83 S9        30.05R

$$

INZ033-034-041-042-049-050-058-059-271200-
EAST CENTRAL INDIANA

CITY           SKY/WX    TMP DP  RH WIND       PRES   REMARKS
MUNCIE         CLEAR     64  60  87 SW6       30.04R

$$

INZ060-061-067>069-081>083-085>088-271200-
SOUTHWEST INDIANA

CITY           SKY/WX    TMP DP  RH WIND       PRES   REMARKS
EVANSVILLE     CLEAR     63  60  90 CALM      30.09R FOG
HUNTINGBURG *+ CLEAR     61  57  88 S5        30.10S
WASHINGTON +   CLEAR     62  58  87 S5        30.07S

$$

INZ062-063-066-070>080-084-089>092-271200-
SOUTH CENTRAL AND SOUTHEAST INDIANA

CITY           SKY/WX    TMP DP  RH WIND       PRES   REMARKS
BLOOMINGTON    CLEAR     62  61  96 S6        30.07R
MADISON *+     PTCLDY    64  61  88 S6        30.13R
NORTH VERNON + CLEAR     64  64 100 S5        30.10R
SEYMOUR +      CLEAR     64  61  88 S6        30.10R

$$



USA.gov is the U.S. government's official web portal to all federal, state and local government web resources and services.